KD7TTL Weather Reports


Display with metric or nautical units.
time (UTC)temp
F
wind
direction
speed
MPH
gust
MPH
rain 1hr
in
rain 24hr
in
rain mn
in
humidity
%
barometer
mb
20260905232510 70 51 1.0 3.0 0.00 0.15 0.01 52 1017.7
20260905232004 70 232 1.0 2.0 0.00 0.15 0.01 53 1017.7
20260905231510 69 93 0.0 4.0 0.00 0.15 0.01 54 1017.7
20260905231006 69 68 0.0 6.0 0.00 0.15 0.01 55 1017.8
20260905230503 69 171 2.0 7.0 0.00 0.15 0.01 55 1017.9
20260905230011 69 150 1.0 7.0 0.00 0.15 0.01 58 1018.0
20260905225505 69 162 1.0 6.0 0.00 0.15 0.01 55 1017.9
20260905225006 70 192 1.0 5.0 0.00 0.15 0.01 53 1018.0
20260905224510 71 9 1.0 3.0 0.00 0.15 0.01 51 1018.0
20260905224005 70 165 1.0 4.0 0.00 0.15 0.01 54 1018.0
20260905223507 70 93 0.0 5.0 0.00 0.15 0.01 54 1018.1
20260905223010 69 325 2.0 7.0 0.00 0.15 0.01 52 1018.1
20260905222506 70 170 3.0 7.0 0.00 0.15 0.01 54 1018.0
20260905222009 71 148 3.0 7.0 0.00 0.15 0.01 53 1018.1
20260905221523 71 51 0.0 6.0 0.00 0.15 0.01 53 1018.1
20260905221008 71 221 2.0 5.0 0.00 0.15 0.01 52 1018.1
20260905220508 70 195 1.0 4.0 0.00 0.15 0.01 54 1018.1
20260905220013 70 101 0.0 8.0 0.00 0.15 0.01 52 1018.1
20260905215506 70 59 2.0 8.0 0.00 0.15 0.01 52 1018.2
20260905215004 70 140 3.0 8.0 0.00 0.15 0.01 53 1018.1
20260905214520 71 137 3.0 7.0 0.00 0.15 0.01 51 1018.1
20260905214006 72 165 4.0 7.0 0.00 0.15 0.01 50 1018.1
20260905213507 73 137 1.0 4.0 0.00 0.15 0.01 50 1018.1
20260905213014 72 51 1.0 4.0 0.00 0.15 0.01 54 1018.1
20260905212507 71 221 1.0 4.0 0.00 0.15 0.01 54 1018.1
20260905212007 71 72 1.0 4.0 0.00 0.15 0.01 52 1018.2
20260905211527 71 72 1.0 4.0 0.00 0.15 0.01 53 1018.3
20260905211008 71 93 1.0 5.0 0.00 0.15 0.01 56 1018.3
20260905210506 70 108 1.0 7.0 0.00 0.15 0.01 59 1018.3
20260905210020 69 243 0.0 8.0 0.00 0.15 0.01 57 1018.4
20260905205508 70 178 2.0 8.0 0.00 0.15 0.01 58 1018.4
20260905205009 71 120 1.0 4.0 0.00 0.15 0.01 57 1018.4
20260905204516 70 51 1.0 5.0 0.00 0.15 0.01 56 1018.4
20260905204005 70 137 2.0 7.0 0.00 0.15 0.01 57 1018.5
20260905203505 70 40 1.0 7.0 0.00 0.15 0.01 58 1018.6
20260905203016 69 18 2.0 7.0 0.00 0.15 0.01 58 1018.5
20260905202506 69 229 2.0 6.0 0.00 0.15 0.01 60 1018.5
20260905202011 69 330 1.0 5.0 0.00 0.15 0.01 56 1018.6
20260905201514 69 265 2.0 6.0 0.00 0.15 0.01 59 1018.6
20260905201005 69 153 2.0 6.0 0.00 0.15 0.01 62 1018.5
20260905200512 68 51 1.0 5.0 0.00 0.15 0.01 61 1018.5
20260905200035 68 74 1.0 3.0 0.00 0.15 0.01 59 1018.6
20260905195506 68 215 1.0 3.0 0.00 0.15 0.01 66 1018.6
20260905195009 68 34 1.0 6.0 0.00 0.15 0.01 62 1018.6
20260905194516 68 48 1.0 7.0 0.00 0.15 0.01 67 1018.7
20260905194006 67 221 0.0 7.0 0.00 0.15 0.01 69 1018.7
20260905193509 66 146 2.0 7.0 0.00 0.15 0.01 64 1018.8
20260905193027 67 80 1.0 4.0 0.00 0.15 0.01 66 1018.9
20260905192510 67 239 1.0 4.0 0.00 0.15 0.01 67 1018.9
20260905192011 67 61 1.0 3.0 0.00 0.15 0.01 65 1018.9
20260905191521 66 162 1.0 4.0 0.00 0.15 0.01 69 1018.9
20260905191007 66 120 0.0 5.0 0.00 0.15 0.01 64 1019.0
20260905190509 66 38 2.0 5.0 0.00 0.15 0.01 66 1019.0
20260905190016 65 54 0.0 5.0 0.00 0.15 0.01 67 1019.0
20260905185510 66 105 1.0 4.0 0.00 0.15 0.01 70 1019.0
20260905185010 65 325 0.0 5.0 0.00 0.15 0.01 70 1019.0
20260905184523 65 221 0.0 5.0 0.00 0.15 0.01 77 1019.1
20260905184008 65 162 0.0 3.0 0.00 0.15 0.01 74 1019.0
20260905183506 64 85 1.0 3.0 0.00 0.15 0.01 80 1019.0
20260905183030 64 30 0.0 3.0 0.00 0.15 0.01 75 1019.2
20260905182510 63 120 0.0 3.0 0.00 0.15 0.01 77 1019.2
20260905182011 62 51 1.0 5.0 0.00 0.15 0.01 78 1019.2
20260905181507 62 102 2.0 5.0 0.00 0.15 0.01 73 1019.3
20260905181002 62 93 0.0 6.0 0.00 0.15 0.01 80 1019.3
20260905180503 61 141 0.0 6.0 0.00 0.15 0.01 75 1019.3
20260905180007 61 178 2.0 6.0 0.00 0.15 0.01 76 1019.3
20260905175503 61 146 4.0 8.0 0.00 0.15 0.01 77 1019.3
20260905175003 61 142 2.0 8.0 0.00 0.15 0.01 76 1019.3
20260905174516 60 157 3.0 6.0 0.00 0.15 0.01 77 1019.3
20260905174002 60 133 2.0 5.0 0.00 0.15 0.01 81 1019.2
20260905173504 60 120 2.0 5.0 0.00 0.16 0.01 81 1019.2
20260905173003 59 265 1.0 5.0 0.00 0.16 0.01 84 1019.2
20260905172506 59 159 2.0 6.0 0.00 0.16 0.01 79 1019.2
20260905172011 59 134 2.0 6.0 0.00 0.16 0.01 83 1019.2
20260905171511 59 178 2.0 5.0 0.00 0.16 0.01 82 1019.2
20260905171009 59 93 0.0 4.0 0.00 0.16 0.01 87 1019.2
20260905170506 58 9 0.0 4.0 0.00 0.16 0.01 86 1019.2
20260905170012 58 68 0.0 2.0 0.00 0.16 0.01 87 1019.3
20260905165506 57 76 0.0 2.0 0.00 0.16 0.01 87 1019.3
20260905165005 57 232 0.0 3.0 0.00 0.16 0.01 92 1019.2
20260905164512 56 68 1.0 3.0 0.00 0.16 0.01 89 1019.2
20260905164007 55 178 0.0 3.0 0.00 0.16 0.01 91 1019.2
20260905163507 55 165 0.0 2.0 0.00 0.16 0.01 93 1019.1
20260905163015 54 68 0.0 4.0 0.00 0.16 0.01 93 1019.1
20260905162506 54 51 1.0 4.0 0.00 0.16 0.01 93 1019.0
20260905162006 53 156 1.0 4.0 0.00 0.16 0.01 95 1019.0
20260905161511 52 137 0.0 4.0 0.00 0.16 0.01 96 1019.0
20260905161004 52 178 1.0 4.0 0.00 0.16 0.01 96 1019.1
20260905160508 51 51 0.0 2.0 0.00 0.16 0.01 96 1019.1
20260905160027 51 68 0.0 1.0 0.00 0.16 0.01 96 1019.1
20260905155507 50 34 0.0 2.0 0.00 0.16 0.01 96 1019.1
20260905155007 50 120 0.0 2.0 0.00 0.16 0.01 96 1019.1
20260905154512 50 93 0.0 2.0 0.00 0.16 0.01 96 1019.1
20260905154006 50 68 0.0 3.0 0.00 0.16 0.01 96 1019.0
20260905153506 49 93 0.0 3.0 0.00 0.16 0.01 96 1019.0
20260905153016 49 137 0.0 2.0 0.00 0.16 0.01 96 1019.0
20260905152508 48 76 0.0 2.0 0.00 0.16 0.01 96 1019.0
20260905152012 48 51 0.0 1.0 0.00 0.16 0.01 95 1018.9
20260905151516 48 68 0.0 1.0 0.00 0.16 0.01 95 1019.0
20260905151010 48 93 0.0 1.0 0.00 0.16 0.01 95 1018.9
20260905150507 48 93 0.0 2.0 0.00 0.16 0.01 95 1018.9
20260905150024 47 26 1.0 2.0 0.00 0.16 0.01 95 1018.9
20260905145510 47 61 0.0 2.0 0.00 0.16 0.01 95 1018.8
20260905145007 47 51 0.0 2.0 0.00 0.16 0.01 95 1018.8
20260905144536 47 61 0.0 2.0 0.00 0.16 0.01 95 1018.8
20260905144012 47 61 0.0 2.0 0.00 0.16 0.01 94 1018.9
20260905143507 47 93 0.0 2.0 0.00 0.16 0.01 94 1018.8
20260905143022 47 68 0.0 1.0 0.00 0.16 0.01 94 1018.8
20260905142508 47 51 0.0 1.0 0.00 0.16 0.01 94 1018.8
20260905142012 47 34 0.0 1.0 0.00 0.16 0.01 94 1018.8
20260905141520 47 93 0.0 1.0 0.00 0.16 0.01 94 1018.7
20260905141009 47 51 0.0 1.0 0.00 0.16 0.01 94 1018.7
20260905140507 47 68 0.0 1.0 0.00 0.16 0.01 94 1018.6
20260905140016 48 68 0.0 1.0 0.00 0.16 0.01 94 1018.6
20260905135512 48 137 0.0 1.0 0.00 0.16 0.01 94 1018.6
20260905135007 48 68 0.0 1.0 0.00 0.16 0.01 94 1018.4
20260905134523 48 51 0.0 1.0 0.00 0.16 0.01 94 1018.4
20260905134006 48 34 0.0 1.0 0.00 0.16 0.01 94 1018.4
20260905133512 48 51 0.0 1.0 0.00 0.16 0.01 94 1018.4
20260905133031 48 9 0.0 1.0 0.00 0.16 0.01 94 1018.4
20260905132513 48 51 0.0 1.0 0.00 0.16 0.01 94 1018.4
20260905132009 48 76 0.0 1.0 0.00 0.16 0.01 94 1018.4
20260905131544 48 93 0.0 1.0 0.00 0.16 0.01 94 1018.4
20260905131010 48 68 0.0 1.0 0.00 0.16 0.01 94 1018.4
20260905130507 48 51 0.0 1.0 0.00 0.16 0.01 94 1018.4
20260905130026 48 68 0.0 1.0 0.00 0.16 0.01 94 1018.4
20260905125508 48 51 0.0 1.0 0.00 0.16 0.01 94 1018.4
20260905125010 49 51 0.0 1.0 0.00 0.16 0.01 94 1018.4
20260905124523 49 51 0.0 1.0 0.00 0.16 0.01 94 1018.4
20260905124008 49 68 0.0 1.0 0.00 0.16 0.01 94 1018.3
20260905123510 49 51 0.0 1.0 0.00 0.16 0.01 94 1018.3
20260905123030 49 68 0.0 1.0 0.00 0.16 0.01 94 1018.4
20260905122511 49 51 0.0 1.0 0.00 0.16 0.01 94 1018.4
20260905122010 49 68 0.0 1.0 0.00 0.16 0.01 94 1018.4
20260905121523 49 51 0.0 2.0 0.00 0.16 0.01 94 1018.4
20260905121009 49 51 0.0 2.0 0.00 0.16 0.01 94 1018.4
20260905120512 49 61 0.0 1.0 0.00 0.16 0.01 94 1018.3
20260905120028 49 68 0.0 1.0 0.00 0.16 0.01 94 1018.3
20260905115512 49 76 0.0 2.0 0.00 0.16 0.01 94 1018.3
20260905115014 49 61 0.0 2.0 0.00 0.16 0.01 94 1018.2
20260905114530 49 34 0.0 2.0 0.00 0.16 0.01 94 1018.1
20260905114011 49 68 0.0 2.0 0.00 0.16 0.01 94 1018.1
20260905113511 49 67 0.0 1.0 0.00 0.16 0.01 94 1018.2
20260905113023 50 67 0.0 1.0 0.00 0.16 0.01 94 1018.1
20260905112510 50 34 0.0 2.0 0.00 0.16 0.01 94 1018.1
20260905112015 50 68 0.0 2.0 0.00 0.16 0.01 94 1018.1
20260905111526 50 68 0.0 1.0 0.00 0.16 0.01 94 1018.1
20260905111011 50 51 0.0 1.0 0.00 0.16 0.01 94 1018.0
20260905110512 50 68 0.0 1.0 0.00 0.16 0.01 94 1018.1
20260905110027 50 51 0.0 1.0 0.00 0.16 0.01 94 1018.1
20260905105510 50 51 0.0 1.0 0.00 0.16 0.01 94 1018.1
20260905105010 50 51 0.0 1.0 0.00 0.16 0.01 94 1018.1
20260905104533 50 76 0.0 2.0 0.00 0.16 0.01 94 1018.1
20260905104012 50 51 0.0 2.0 0.00 0.16 0.01 94 1018.1
20260905103512 50 51 0.0 1.0 0.00 0.16 0.01 94 1018.1
20260905103033 50 51 0.0 1.0 0.01 0.16 0.01 94 1018.1
20260905102512 50 51 0.0 1.0 0.01 0.16 0.01 94 1018.1
20260905102010 50 76 0.0 1.0 0.01 0.16 0.01 94 1018.1
20260905101525 50 93 0.0 1.0 0.01 0.16 0.01 94 1018.1
20260905101011 50 9 0.0 1.0 0.01 0.16 0.01 94 1018.1
20260905100511 51 51 0.0 1.0 0.01 0.16 0.01 94 1018.1
20260905100026 51 51 0.0 1.0 0.01 0.16 0.01 94 1018.1
20260905095515 51 68 0.0 1.0 0.01 0.16 0.01 94 1018.1
20260905095014 51 34 0.0 1.0 0.01 0.16 0.01 94 1018.1
20260905094524 51 34 0.0 1.0 0.01 0.16 0.01 94 1018.0
20260905094010 51 68 0.0 1.0 0.01 0.16 0.01 94 1018.0
20260905093511 51 51 0.0 1.0 0.01 0.16 0.01 94 1017.9
20260905093033 51 51 0.0 1.0 0.00 0.15 0.00 94 1017.9
20260905092516 51 34 0.0 1.0 0.00 0.15 0.00 94 1017.9
20260905092013 51 93 0.0 1.0 0.00 0.15 0.00 94 1017.8
20260905091529 51 68 0.0 1.0 0.00 0.15 0.00 94 1017.8
20260905091011 51 9 0.0 1.0 0.00 0.15 0.00 94 1017.8
20260905090513 51 51 0.0 1.0 0.00 0.15 0.00 94 1017.8
20260905090031 51 51 0.0 1.0 0.00 0.15 0.00 94 1017.8
20260905085516 51 93 0.0 1.0 0.00 0.15 0.00 94 1017.8
20260905085012 51 68 0.0 1.0 0.00 0.15 0.00 94 1017.8
20260905084530 51 34 0.0 1.0 0.00 0.15 0.00 94 1017.7
20260905084015 51 51 0.0 1.0 0.00 0.15 0.00 94 1017.7
20260905083515 51 51 0.0 1.0 0.00 0.15 0.00 94 1017.6
20260905083028 51 34 0.0 1.0 0.00 0.15 0.00 94 1017.5
20260905082513 51 51 0.0 1.0 0.00 0.15 0.00 94 1017.5
20260905082014 51 51 0.0 1.0 0.00 0.15 0.00 94 1017.6
20260905081529 51 51 0.0 1.0 0.00 0.15 0.00 94 1017.5
20260905081013 51 51 0.0 1.0 0.00 0.15 0.00 94 1017.5
20260905080512 51 51 0.0 1.0 0.00 0.15 0.00 94 1017.5
20260905080038 51 51 0.0 1.0 0.00 0.15 0.00 94 1017.4
20260905075512 51 93 0.0 1.0 0.00 0.15 0.00 94 1017.4
20260905075013 51 51 0.0 1.0 0.00 0.15 0.00 94 1017.3
20260905074539 51 9 0.0 1.0 0.00 0.15 0.00 94 1017.3
20260905074014 51 68 0.0 1.0 0.00 0.15 0.00 94 1017.3
20260905073515 51 51 0.0 1.0 0.00 0.15 0.00 94 1017.2
20260905073042 51 34 0.0 1.0 0.00 0.15 0.00 94 1017.2
20260905072515 51 51 0.0 2.0 0.00 0.15 0.00 94 1017.2
20260905072012 52 119 0.0 2.0 0.00 0.15 0.00 94 1017.2
20260905071532 52 93 0.0 1.0 0.00 0.15 0.00 93 1017.1
20260905071013 52 51 0.0 1.0 0.00 0.15 0.00 93 1017.1
20260905070512 52 51 0.0 1.0 0.00 0.15 0.00 93 1017.1
20260905070032 52 34 0.0 1.0 0.00 0.15 0.00 93 1017.2
20260905065513 52 51 0.0 1.0 0.00 0.15 0.15 93 1017.2
20260905065020 52 34 0.0 1.0 0.00 0.15 0.15 93 1017.1
20260905064528 52 68 0.0 1.0 0.00 0.15 0.15 93 1017.1
20260905064016 52 34 0.0 1.0 0.00 0.15 0.15 93 1017.2
20260905063512 52 68 0.0 1.0 0.00 0.15 0.15 93 1017.1
20260905063030 52 34 0.0 1.0 0.00 0.15 0.15 93 1017.2
20260905062519 52 93 0.0 1.0 0.00 0.15 0.15 93 1017.2
20260905062014 52 51 0.0 1.0 0.00 0.15 0.15 93 1017.1
20260905061532 52 9 0.0 1.0 0.00 0.15 0.15 93 1017.1
20260905061013 52 68 0.0 1.0 0.00 0.15 0.15 92 1017.2
20260905060516 52 9 0.0 1.0 0.00 0.15 0.15 92 1017.2
20260905060028 52 34 0.0 1.0 0.00 0.15 0.15 92 1017.2
20260905055515 52 68 0.0 1.0 0.00 0.15 0.15 92 1017.2
20260905055014 52 51 0.0 1.0 0.00 0.15 0.15 92 1017.3
20260905054530 52 51 0.0 2.0 0.00 0.15 0.15 92 1017.2
20260905054013 53 51 0.0 2.0 0.00 0.15 0.15 92 1017.2
20260905053515 53 265 0.0 1.0 0.00 0.15 0.15 92 1017.3
20260905053035 53 51 0.0 1.0 0.00 0.15 0.15 92 1017.3
20260905052517 53 51 0.0 1.0 0.00 0.15 0.15 92 1017.4
20260905052013 53 51 0.0 1.0 0.00 0.15 0.15 92 1017.3
20260905051531 53 9 0.0 1.0 0.00 0.15 0.15 92 1017.2
20260905051015 53 51 0.0 1.0 0.00 0.15 0.15 92 1017.2
20260905050518 53 51 0.0 1.0 0.00 0.15 0.15 92 1017.2
20260905050034 53 34 0.0 1.0 0.00 0.15 0.15 92 1017.1
20260905045518 53 51 0.0 1.0 0.00 0.15 0.15 93 1017.1
20260905045015 54 68 0.0 1.0 0.00 0.15 0.15 93 1017.1
20260905044529 54 68 0.0 1.0 0.00 0.15 0.15 93 1017.2
20260905044015 54 51 0.0 1.0 0.00 0.15 0.15 93 1017.2
20260905043516 54 51 0.0 1.0 0.00 0.15 0.15 93 1017.2
20260905043028 54 325 0.0 2.0 0.00 0.15 0.15 93 1017.1
20260905042513 54 68 0.0 2.0 0.00 0.15 0.15 92 1017.2
20260905042012 54 178 0.0 2.0 0.01 0.15 0.15 92 1017.1
20260905041531 54 51 0.0 2.0 0.01 0.15 0.15 93 1017.2
20260905041015 54 9 0.0 2.0 0.01 0.15 0.15 92 1017.1
20260905040514 54 51 0.0 2.0 0.02 0.15 0.15 92 1017.1
20260905040039 54 51 0.0 1.0 0.03 0.15 0.15 92 1017.0
20260905035514 54 68 0.0 2.0 0.03 0.15 0.15 92 1016.8
20260905035013 54 126 0.0 4.0 0.03 0.15 0.15 93 1016.9
20260905034531 54 265 0.0 4.0 0.04 0.15 0.15 93 1016.9
20260905034014 54 51 0.0 2.0 0.04 0.15 0.15 93 1016.8
20260905033512 54 9 0.0 2.0 0.04 0.15 0.15 93 1016.9
20260905033046 54 309 0.0 2.0 0.04 0.15 0.15 92 1016.9
20260905032514 54 232 1.0 2.0 0.04 0.15 0.15 92 1016.9
20260905032016 54 232 0.0 2.0 0.03 0.14 0.14 92 1016.7
20260905031529 54 68 0.0 3.0 0.03 0.14 0.14 92 1016.7
20260905031016 55 137 0.0 3.0 0.03 0.14 0.14 92 1016.8
20260905030513 55 137 0.0 1.0 0.02 0.13 0.13 92 1016.7
20260905030030 55 93 0.0 2.0 0.01 0.12 0.12 91 1016.8
20260905025514 55 68 0.0 3.0 0.01 0.12 0.12 91 1016.8
20260905025014 55 24 0.0 3.0 0.01 0.12 0.12 90 1017.0
20260905024532 55 80 1.0 3.0 0.00 0.11 0.11 90 1017.1
20260905024012 55 9 1.0 3.0 0.00 0.11 0.11 91 1017.2
20260905023515 56 111 1.0 3.0 0.00 0.11 0.11 91 1017.2
20260905023101 56 61 0.0 2.0 0.00 0.11 0.11 91 1017.3
20260905022515 56 9 0.0 2.0 0.00 0.11 0.11 91 1017.3
20260905022016 56 80 0.0 1.0 0.00 0.11 0.11 91 1017.4
20260905021527 56 68 0.0 2.0 0.00 0.11 0.11 91 1017.5
20260905021016 56 68 0.0 2.0 0.00 0.11 0.11 90 1017.5
20260905020513 56 126 0.0 2.0 0.00 0.11 0.11 90 1017.5
20260905020033 56 93 0.0 2.0 0.00 0.11 0.11 90 1017.4
20260905015514 56 282 0.0 3.0 0.00 0.11 0.11 90 1017.2
20260905015015 57 76 1.0 6.0 0.00 0.11 0.11 88 1017.1
20260905014530 57 187 2.0 8.0 0.00 0.11 0.11 88 1016.9
20260905014013 57 157 3.0 8.0 0.00 0.11 0.11 87 1016.8
20260905013505 58 126 1.0 3.0 0.00 0.11 0.11 91 1016.8
20260905013004 58 93 0.0 2.0 0.01 0.11 0.11 91 1016.6
20260905012504 58 144 0.0 2.0 0.02 0.11 0.11 90 1016.6
20260905012018 58 9 0.0 2.0 0.09 0.11 0.11 90 1016.4
20260905011530 58 178 0.0 2.0 0.10 0.11 0.11 90 1016.2
20260905011014 58 137 0.0 2.0 0.10 0.11 0.11 89 1016.0
20260905010514 59 126 0.0 2.0 0.10 0.11 0.11 88 1015.9
20260905010035 59 265 0.0 1.0 0.10 0.11 0.11 88 1015.8
20260905005514 59 137 0.0 1.0 0.10 0.11 0.11 87 1015.8
20260905005013 60 93 0.0 1.0 0.10 0.11 0.11 86 1015.8
20260905004529 60 51 0.0 2.0 0.10 0.11 0.11 86 1015.8
20260905004016 60 93 0.0 3.0 0.10 0.11 0.11 84 1015.7
20260905003517 61 9 1.0 3.0 0.10 0.11 0.11 83 1015.7
20260905003032 61 325 1.0 4.0 0.09 0.10 0.10 82 1015.7
20260905002514 62 34 0.0 4.0 0.08 0.09 0.09 80 1015.7
20260905002016 63 309 0.0 3.0 0.01 0.02 0.02 76 1015.5
20260905001526 63 51 0.0 3.0 0.00 0.01 0.01 75 1015.3
20260905001012 64 325 1.0 3.0 0.00 0.01 0.01 72 1015.1
20260905000512 64 51 1.0 3.0 0.00 0.01 0.01 72 1015.2
20260905000028 65 342 0.0 4.0 0.00 0.01 0.01 72 1015.4
20260904235511 66 72 1.0 4.0 0.00 0.01 0.01 68 1015.3
20260904235012 68 165 0.0 4.0 0.00 0.01 0.01 71 1015.1
20260904234534 70 41 2.0 5.0 0.00 0.01 0.01 60 1015.1
20260904234013 71 51 0.0 5.0 0.00 0.01 0.01 58 1014.9
20260904233515 72 51 1.0 5.0 0.00 0.01 0.01 56 1014.7
20260904233028 72 76 1.0 13.0 0.00 0.01 0.01 53 1014.7